Overview Statistics Trail Chart Weather Telemetry Raw packets
 

This is the latest recevied weather packets stored in our database for station/object W4MLN-3. If no packets are shown the sender has not sent any weather packets the latest 10 day(s).

<< 10 11 12 13 14 15 16 >>
Time Temp. Humidity Pressure Rain* Wind** Luminosity Snow
1788565203 25° C 74% 1019.9 hPa 0 mm - - -
1788564903 25° C 73% 1019.8 hPa 0 mm - - -
1788564624 25.56° C 73% 1019.9 hPa 0 mm - - -
1788564303 25.56° C 73% 1019.9 hPa 0 mm - - -
1788564003 26.11° C 71% 1019.9 hPa 0 mm - - -
1788563703 26.11° C 70% 1019.8 hPa 0 mm - - -
1788563403 26.67° C 69% 1019.8 hPa 0 mm - - -
1788563103 26.67° C 68% 1019.8 hPa 0 mm - - -
1788562803 27.22° C 67% 1019.6 hPa 0 mm - - -
1788562503 27.22° C 64% 1019.6 hPa 0 mm - - -
1788562203 27.78° C 63% 1019.7 hPa 0 mm - - -
1788561903 27.78° C 62% 1019.7 hPa 0 mm - - -
1788561603 27.22° C 62% 1019.6 hPa 0 mm - - -
1788561303 27.22° C 62% 1019.6 hPa 0 mm - - -
1788561024 27.22° C 64% 1019.7 hPa 0 mm - - -
1788560703 27.22° C 64% 1019.7 hPa 0 mm - - -
1788560403 27.78° C 63% 1019.8 hPa 0 mm - - -
1788560103 27.78° C 63% 1020 hPa 0 mm - - -
1788559803 28.33° C 60% 1020 hPa 0 mm - - -
1788559503 28.89° C 59% 1020 hPa 0 mm - - -
1788559203 29.44° C 57% 1020 hPa 0 mm - - -
1788558903 30° C 55% 1020.1 hPa 0 mm - - -
1788558624 30° C 54% 1019.9 hPa 0 mm - - -
1788558303 30.56° C 53% 1019.9 hPa 0 mm - - -
1788558003 31.11° C 53% 1019.9 hPa 0 mm - - -

* Rain latest hour (hover to see other rain measurements)
** Current wind speed in m/s (hover to see current wind gust speed)